^^
Caerphilly Weather Station Historical Data
 
Daily Summary for February 21, 2019 Units:  Metric    English   Both
Daily Weekly Monthly Yearly Custom
  Current: High: Low: Average:
Temperature: 12.4 °C 14.1 °C 8.8 °C 10.8 °C
Dew Point: 9.1 °C 10.0 °C 8.0 °C 9 °C
Humidity: 80% 96% 73% 89%
Wind Speed: 0.0km/h 1.9km/h 0.0km/h 0km/h
Wind Gust: 0.0km/h 8.0km/h - -
WindCalm - - SW
Pressure: 1026.5 hPa 1026.5 hPa 1020.5 hPa -
Precipitation: 0.5 mm      
Historical Graphs
 
 
Tabular Data for February 21, 2019
Time Temperature Dew Point Pressure Wind Wind Speed Wind Gust Humidity Rainfall Rate (Hourly) solar
00:00 9.1 °C 8.0 °C 1020.6 hPa Calm     93% 0.0 mm 0.00 W/m2
00:05 9.1 °C 8.0 °C 1020.6 hPa Calm     93% 0.0 mm 0.00 W/m2
00:10 9.1 °C 8.0 °C 1020.5 hPa Calm     93% 0.0 mm 0.00 W/m2
00:14 9.1 °C 8.0 °C 1020.5 hPa Calm     93% 0.0 mm 0.00 W/m2
00:19 9.1 °C 8.0 °C 1020.6 hPa Calm     93% 0.0 mm 0.00 W/m2
00:25 9.1 °C 8.0 °C 1020.6 hPa Calm     93% 0.0 mm 0.00 W/m2
00:30 9.1 °C 8.0 °C 1020.7 hPa Calm     93% 0.0 mm 0.00 W/m2
00:35 9.1 °C 8.0 °C 1020.7 hPa Calm     93% 0.0 mm 0.00 W/m2
00:39 9.1 °C 8.0 °C 1020.7 hPa Calm     93% 0.3 mm 0.00 W/m2
00:45 9.1 °C 8.0 °C 1020.6 hPa Calm     93% 0.0 mm 0.00 W/m2
00:49 9.1 °C 8.1 °C 1020.6 hPa Calm     93% 0.3 mm 0.00 W/m2
00:54 9.1 °C 8.1 °C 1020.6 hPa Calm     93% 0.3 mm 0.00 W/m2
01:00 9.2 °C 8.1 °C 1020.6 hPa Calm     93% 0.0 mm 0.00 W/m2
01:04 9.2 °C 8.1 °C 1020.6 hPa Calm     93% 0.3 mm 0.00 W/m2
01:10 9.2 °C 8.2 °C 1020.7 hPa Calm     93% 0.0 mm 0.00 W/m2
01:15 9.3 °C 8.2 °C 1020.6 hPa Calm     93% 0.0 mm 0.00 W/m2
01:20 9.3 °C 8.2 °C 1020.6 hPa Calm     93% 0.0 mm 0.00 W/m2
01:25 9.3 °C 8.2 °C 1020.6 hPa Calm     93% 0.0 mm 0.00 W/m2
01:30 9.3 °C 8.3 °C 1020.6 hPa Calm     93% 0.0 mm 0.00 W/m2
01:35 9.4 °C 8.3 °C 1020.7 hPa Calm     93% 0.0 mm 0.00 W/m2
01:39 9.3 °C 8.3 °C 1020.6 hPa Calm     93% 0.0 mm 0.00 W/m2
01:45 9.3 °C 8.3 °C 1020.7 hPa Calm     93% 0.0 mm 0.00 W/m2
01:50 9.3 °C 8.3 °C 1020.7 hPa Calm     93% 0.0 mm 0.00 W/m2
01:54 9.3 °C 8.3 °C 1020.8 hPa Calm     93% 0.0 mm 0.00 W/m2
02:00 9.4 °C 8.3 °C 1020.8 hPa Calm     93% 0.0 mm 0.00 W/m2
02:05 9.4 °C 8.3 °C 1020.8 hPa Calm     93% 0.0 mm 0.00 W/m2
02:09 9.4 °C 8.3 °C 1020.9 hPa Calm     93% 0.0 mm 0.00 W/m2
02:15 9.4 °C 8.4 °C 1021.0 hPa Calm     93% 0.0 mm 0.00 W/m2
02:19 9.4 °C 8.4 °C 1020.9 hPa Calm     93% 0.0 mm 0.00 W/m2
02:25 9.4 °C 8.4 °C 1020.9 hPa Calm     93% 0.0 mm 0.00 W/m2
02:29 9.4 °C 8.4 °C 1020.8 hPa Calm     93% 0.0 mm 0.00 W/m2
02:34 9.4 °C 8.4 °C 1020.8 hPa Calm     93% 0.0 mm 0.00 W/m2
02:40 9.4 °C 8.3 °C 1020.9 hPa Calm     93% 0.0 mm 0.00 W/m2
02:44 9.3 °C 8.3 °C 1021.0 hPa Calm     93% 0.0 mm 0.00 W/m2
02:49 9.3 °C 8.2 °C 1020.9 hPa Calm     93% 0.0 mm 0.00 W/m2
02:54 9.2 °C 8.2 °C 1021.0 hPa Calm     93% 0.0 mm 0.00 W/m2
02:59 9.2 °C 8.2 °C 1021.1 hPa Calm     93% 0.0 mm 0.00 W/m2
03:04 9.2 °C 8.1 °C 1021.1 hPa Calm     93% 0.0 mm 0.00 W/m2
03:09 9.2 °C 8.1 °C 1021.2 hPa Calm     93% 0.0 mm 0.00 W/m2
03:14 9.2 °C 8.1 °C 1021.2 hPa Calm     93% 0.0 mm 0.00 W/m2
03:20 9.2 °C 8.1 °C 1021.3 hPa Calm     93% 0.0 mm 0.00 W/m2
03:24 9.2 °C 8.1 °C 1021.4 hPa Calm     93% 0.0 mm 0.00 W/m2
03:30 9.2 °C 8.3 °C 1021.4 hPa Calm     94% 0.0 mm 0.00 W/m2
03:34 9.1 °C 8.2 °C 1021.4 hPa Calm     94% 0.0 mm 0.00 W/m2
03:39 9.1 °C 8.2 °C 1021.4 hPa Calm     94% 0.0 mm 0.00 W/m2
03:44 9.1 °C 8.2 °C 1021.5 hPa Calm     94% 0.0 mm 0.00 W/m2
03:50 9.1 °C 8.2 °C 1021.4 hPa Calm     94% 0.0 mm 0.00 W/m2
03:54 9.1 °C 8.2 °C 1021.5 hPa Calm     94% 0.0 mm 0.00 W/m2
04:00 9.1 °C 8.2 °C 1021.6 hPa Calm     94% 0.0 mm 0.00 W/m2
04:05 9.1 °C 8.2 °C 1021.6 hPa Calm     94% 0.0 mm 0.00 W/m2
04:10 9.1 °C 8.2 °C 1021.7 hPa Calm     94% 0.0 mm 0.00 W/m2
04:15 9.1 °C 8.2 °C 1021.8 hPa Calm     94% 0.0 mm 0.00 W/m2
04:19 9.1 °C 8.2 °C 1021.8 hPa Calm     94% 0.0 mm 0.00 W/m2
04:24 9.0 °C 8.2 °C 1021.8 hPa Calm     95% 0.0 mm 0.00 W/m2
04:29 9.0 °C 8.2 °C 1021.8 hPa Calm     95% 0.3 mm 0.00 W/m2
04:35 8.9 °C 8.2 °C 1021.9 hPa Calm     95% 0.0 mm 0.00 W/m2
04:40 8.9 °C 8.2 °C 1022.0 hPa Calm     95% 0.0 mm 0.00 W/m2
04:44 8.9 °C 8.2 °C 1022.0 hPa Calm     95% 0.3 mm 0.00 W/m2
04:50 8.9 °C 8.2 °C 1022.0 hPa Calm     95% 0.0 mm 0.00 W/m2
04:54 8.9 °C 8.1 °C 1022.1 hPa Calm     95% 0.3 mm 0.00 W/m2
05:00 8.9 °C 8.1 °C 1022.1 hPa Calm     95% 0.0 mm 0.00 W/m2
05:04 8.8 °C 8.1 °C 1022.1 hPa Calm     95% 0.3 mm 0.00 W/m2
05:10 8.8 °C 8.1 °C 1022.2 hPa Calm     95% 0.0 mm 0.00 W/m2
05:14 8.8 °C 8.1 °C 1022.2 hPa Calm     95% 0.3 mm 0.00 W/m2
05:19 8.8 °C 8.1 °C 1022.3 hPa Calm     95% 0.3 mm 0.00 W/m2
05:24 8.8 °C 8.2 °C 1022.3 hPa Calm     96% 0.3 mm 0.00 W/m2
05:30 8.8 °C 8.2 °C 1022.4 hPa Calm     96% 0.0 mm 0.00 W/m2
05:35 8.8 °C 8.2 °C 1022.5 hPa Calm     96% 0.0 mm 0.00 W/m2
05:40 8.9 °C 8.3 °C 1022.5 hPa Calm     96% 0.0 mm 0.00 W/m2
05:44 8.9 °C 8.3 °C 1022.5 hPa Calm     96% 0.0 mm 0.00 W/m2
05:49 8.9 °C 8.3 °C 1022.5 hPa Calm     96% 0.0 mm 0.00 W/m2
05:54 8.9 °C 8.3 °C 1022.5 hPa Calm     96% 0.0 mm 0.00 W/m2
05:59 8.9 °C 8.3 °C 1022.6 hPa Calm     96% 0.0 mm 0.00 W/m2
06:04 9.0 °C 8.4 °C 1022.5 hPa Calm     96% 0.0 mm 0.00 W/m2
06:10 9.1 °C 8.5 °C 1022.6 hPa Calm     96% 0.0 mm 0.00 W/m2
06:15 9.3 °C 8.7 °C 1022.6 hPa Calm     96% 0.0 mm 0.00 W/m2
06:20 9.4 °C 8.8 °C 1022.6 hPa Calm     96% 0.0 mm 0.00 W/m2
06:25 9.5 °C 8.9 °C 1022.6 hPa Calm     96% 0.0 mm 0.00 W/m2
06:29 9.5 °C 8.9 °C 1022.7 hPa Calm     96% 0.0 mm 0.00 W/m2
06:35 9.6 °C 8.9 °C 1022.8 hPa Calm     96% 0.0 mm 0.00 W/m2
06:40 9.6 °C 8.9 °C 1022.8 hPa Calm     96% 0.0 mm 0.00 W/m2
06:45 9.6 °C 8.9 °C 1022.9 hPa Calm     96% 0.0 mm 0.00 W/m2
06:49 9.6 °C 8.9 °C 1022.9 hPa Calm     96% 0.0 mm 0.00 W/m2
06:55 9.6 °C 9.0 °C 1022.9 hPa Calm     96% 0.0 mm 0.00 W/m2
06:59 9.6 °C 9.0 °C 1022.9 hPa Calm     96% 0.0 mm 0.00 W/m2
07:05 9.7 °C 9.1 °C 1023.0 hPa Calm     96% 0.0 mm 0.00 W/m2
07:10 9.7 °C 9.1 °C 1023.1 hPa Calm     96% 0.0 mm 0.00 W/m2
07:14 9.7 °C 9.1 °C 1023.1 hPa Calm     96% 0.0 mm 0.00 W/m2
07:20 9.7 °C 9.1 °C 1023.1 hPa Calm     96% 0.0 mm 0.00 W/m2
07:25 9.7 °C 9.1 °C 1023.1 hPa Calm     96% 0.0 mm 5.50 W/m2
07:30 9.7 °C 9.1 °C 1023.2 hPa Calm     96% 0.0 mm 9.90 W/m2
07:35 9.7 °C 9.1 °C 1023.4 hPa Calm     96% 0.0 mm 13.20 W/m2
07:40 9.7 °C 9.1 °C 1023.5 hPa Calm     96% 0.0 mm 17.60 W/m2
07:45 9.7 °C 9.1 °C 1023.6 hPa Calm     96% 0.0 mm 25.30 W/m2
07:50 9.7 °C 9.1 °C 1023.6 hPa Calm     96% 0.0 mm 15.40 W/m2
07:55 9.7 °C 9.1 °C 1023.8 hPa Calm     96% 0.0 mm 17.60 W/m2
08:00 9.7 °C 9.1 °C 1023.8 hPa Calm     96% 0.0 mm 19.80 W/m2
08:04 9.7 °C 9.1 °C 1023.8 hPa Calm     96% 0.0 mm 28.60 W/m2
08:09 9.7 °C 9.1 °C 1023.9 hPa Calm     96% 0.0 mm 27.50 W/m2
08:15 9.7 °C 9.1 °C 1024.0 hPa Calm     96% 0.0 mm 25.30 W/m2
08:20 9.7 °C 9.1 °C 1024.1 hPa Calm     96% 0.0 mm 33.00 W/m2
08:25 9.8 °C 9.2 °C 1024.2 hPa Calm     96% 0.0 mm 38.50 W/m2
08:29 9.7 °C 9.1 °C 1024.2 hPa Calm     96% 0.0 mm 46.20 W/m2
08:35 9.8 °C 9.2 °C 1024.3 hPa Calm     96% 0.0 mm 35.20 W/m2
08:39 9.8 °C 9.2 °C 1024.3 hPa Calm     96% 0.0 mm 35.20 W/m2
08:45 9.8 °C 9.2 °C 1024.4 hPa Calm     96% 0.0 mm 35.20 W/m2
08:50 9.8 °C 9.2 °C 1024.4 hPa Calm     96% 0.0 mm 42.90 W/m2
08:55 9.8 °C 9.2 °C 1024.4 hPa Calm     96% 0.0 mm 40.70 W/m2
09:00 9.8 °C 9.2 °C 1024.4 hPa Calm     96% 0.0 mm 71.50 W/m2
09:04 9.8 °C 9.2 °C 1024.4 hPa Calm     96% 0.0 mm 102.30 W/m2
09:10 9.9 °C 9.4 °C 1024.5 hPa Calm     96% 0.0 mm 168.30 W/m2
09:15 10.1 °C 9.5 °C 1024.6 hPa Calm     96% 0.0 mm 168.30 W/m2
09:20 10.2 °C 9.6 °C 1024.6 hPa Calm     96% 0.0 mm 147.40 W/m2
09:24 10.3 °C 9.7 °C 1024.6 hPa Calm     96% 0.0 mm 212.30 W/m2
09:29 10.4 °C 9.6 °C 1024.6 hPa Calm     95% 0.0 mm 342.10 W/m2
09:35 10.6 °C 9.9 °C 1024.7 hPa Calm     96% 0.0 mm 196.90 W/m2
09:39 10.7 °C 9.9 °C 1024.7 hPa Calm     95% 0.0 mm 336.60 W/m2
09:44 10.8 °C 10.0 °C 1024.7 hPa Calm     95% 0.0 mm 255.20 W/m2
09:50 10.8 °C 9.9 °C 1024.8 hPa Calm     94% 0.0 mm 135.30 W/m2
09:55 10.9 °C 9.8 °C 1024.9 hPa Calm     93% 0.0 mm 163.90 W/m2
09:59 10.8 °C 9.7 °C 1024.9 hPa Calm     93% 0.0 mm 189.20 W/m2
10:05 10.9 °C 9.8 °C 1025.0 hPa Calm     93% 0.0 mm 137.50 W/m2
10:09 10.9 °C 9.7 °C 1025.1 hPa Calm     92% 0.0 mm 158.40 W/m2
10:15 10.9 °C 9.7 °C 1025.1 hPa Calm   1.6 km/h 92% 0.0 mm 160.60 W/m2
10:20 11.0 °C 9.7 °C 1025.2 hPa Calm     92% 0.0 mm 163.90 W/m2
10:24 11.1 °C 9.7 °C 1025.2 hPa Calm     91% 0.0 mm 295.90 W/m2
10:29 11.2 °C 9.6 °C 1025.2 hPa Calm     90% 0.0 mm 216.70 W/m2
10:34 11.3 °C 9.8 °C 1025.2 hPa Calm     90% 0.0 mm 359.70 W/m2
10:39 11.5 °C 9.7 °C 1025.3 hPa Calm     89% 0.0 mm 306.90 W/m2
10:44 11.6 °C 9.8 °C 1025.3 hPa Calm     89% 0.0 mm 477.40 W/m2
10:49 11.7 °C 9.7 °C 1025.4 hPa Calm     88% 0.0 mm 490.60 W/m2
10:55 11.7 °C 9.8 °C 1025.5 hPa Calm     88% 0.0 mm 147.40 W/m2
11:00 11.7 °C 9.6 °C 1025.4 hPa Calm     87% 0.0 mm 171.60 W/m2
11:05 11.7 °C 9.6 °C 1025.5 hPa Calm     87% 0.0 mm 147.40 W/m2
11:10 11.7 °C 9.4 °C 1025.5 hPa Calm     86% 0.0 mm 152.90 W/m2
11:14 11.7 °C 9.4 °C 1025.5 hPa Calm     86% 0.0 mm 119.90 W/m2
11:20 11.7 °C 9.4 °C 1025.4 hPa Calm     86% 0.0 mm 158.40 W/m2
11:25 11.7 °C 9.4 °C 1025.3 hPa Calm     86% 0.0 mm 176.00 W/m2
11:30 11.8 °C 9.3 °C 1025.4 hPa Calm     85% 0.0 mm 135.30 W/m2
11:35 11.9 °C 9.4 °C 1025.4 hPa Calm     85% 0.0 mm 354.20 W/m2
11:40 12.1 °C 9.6 °C 1025.3 hPa Calm     85% 0.0 mm 553.30 W/m2
11:45 12.3 °C 9.6 °C 1025.3 hPa Calm     83% 0.0 mm 566.50 W/m2
11:50 12.7 °C 9.7 °C 1025.3 hPa Calm     82% 0.0 mm 537.90 W/m2
11:55 12.7 °C 9.7 °C 1025.3 hPa Calm     82% 0.0 mm 471.90 W/m2
12:00 12.6 °C 9.6 °C 1025.4 hPa Calm     82% 0.0 mm 490.60 W/m2
12:05 12.7 °C 9.7 °C 1025.3 hPa Calm     82% 0.0 mm 474.10 W/m2
12:09 12.9 °C 9.9 °C 1025.3 hPa Calm     82% 0.0 mm 518.10 W/m2
12:15 12.9 °C 9.9 °C 1025.3 hPa Calm     82% 0.0 mm 443.30 W/m2
12:19 12.8 °C 9.7 °C 1025.3 hPa Calm     81% 0.0 mm 443.30 W/m2
12:25 12.8 °C 9.6 °C 1025.5 hPa Calm     81% 0.0 mm 162.80 W/m2
12:30 12.6 °C 9.4 °C 1025.5 hPa Calm     81% 0.0 mm 212.30 W/m2
12:34 12.7 °C 9.7 °C 1025.4 hPa Calm     82% 0.0 mm 209.00 W/m2
12:40 12.7 °C 9.6 °C 1025.4 hPa Calm     81% 0.0 mm 222.20 W/m2
12:44 12.8 °C 9.6 °C 1025.5 hPa Calm     81% 0.0 mm 500.50 W/m2
12:49 12.9 °C 9.5 °C 1025.5 hPa Calm     80% 0.0 mm 226.60 W/m2
12:54 12.8 °C 9.6 °C 1025.7 hPa Calm     81% 0.0 mm 147.40 W/m2
12:59 12.7 °C 9.5 °C 1025.6 hPa Calm     81% 0.0 mm 183.70 W/m2
13:05 12.6 °C 9.4 °C 1025.6 hPa Calm     81% 0.0 mm 201.30 W/m2
13:10 12.7 °C 9.5 °C 1025.6 hPa Calm     81% 0.0 mm 220.00 W/m2
13:15 12.7 °C 9.5 °C 1025.7 hPa Calm   3.2 km/h 81% 0.0 mm 227.70 W/m2
13:20 12.8 °C 9.6 °C 1025.8 hPa Calm     81% 0.0 mm 162.80 W/m2
13:25 12.8 °C 9.6 °C 1025.7 hPa Calm     81% 0.0 mm 158.40 W/m2
13:29 12.7 °C 9.3 °C 1025.7 hPa Calm     80% 0.0 mm 166.10 W/m2
13:34 12.7 °C 9.3 °C 1025.7 hPa Calm     80% 0.0 mm 129.80 W/m2
13:40 12.6 °C 9.4 °C 1025.7 hPa Calm     81% 0.0 mm 466.40 W/m2
13:45 12.7 °C 9.6 °C 1025.6 hPa Calm     81% 0.0 mm 448.80 W/m2
13:50 13.1 °C 9.7 °C 1025.7 hPa Calm     80% 0.0 mm 419.10 W/m2
13:55 13.2 °C 9.6 °C 1025.7 hPa Calm     79% 0.0 mm 344.30 W/m2
13:59 13.3 °C 9.6 °C 1025.7 hPa Calm     78% 0.0 mm 361.90 W/m2
14:05 13.4 °C 9.6 °C 1025.7 hPa Calm     78% 0.0 mm 411.40 W/m2
14:10 13.5 °C 9.6 °C 1025.7 hPa Calm     77% 0.0 mm 382.80 W/m2
14:14 13.6 °C 9.8 °C 1025.7 hPa Calm     78% 0.0 mm 347.60 W/m2
14:19 13.8 °C 9.6 °C 1025.7 hPa Calm     76% 0.0 mm 352.00 W/m2
14:25 13.6 °C 9.2 °C 1025.7 hPa Calm     75% 0.0 mm 181.50 W/m2
14:30 13.4 °C 9.5 °C 1025.7 hPa Calm     77% 0.0 mm 347.60 W/m2
14:34 13.7 °C 9.9 °C 1025.8 hPa Calm     78% 0.0 mm 332.20 W/m2
14:39 13.7 °C 9.4 °C 1025.8 hPa Calm     75% 0.0 mm 319.00 W/m2
14:44 13.7 °C 9.3 °C 1025.8 hPa Calm     75% 0.0 mm 313.50 W/m2
14:49 13.9 °C 9.6 °C 1025.8 hPa Calm     75% 0.0 mm 259.60 W/m2
14:54 14.0 °C 9.4 °C 1025.9 hPa Calm     74% 0.0 mm 306.90 W/m2
14:59 14.1 °C 9.5 °C 1025.9 hPa Calm     74% 0.0 mm 286.00 W/m2
15:04 13.9 °C 9.1 °C 1025.9 hPa Calm     73% 0.0 mm 275.00 W/m2
15:10 13.7 °C 9.3 °C 1025.9 hPa Calm     75% 0.0 mm 268.40 W/m2
15:15 13.6 °C 9.2 °C 1025.9 hPa Calm   3.2 km/h 75% 0.0 mm 257.40 W/m2
15:20 13.8 °C 9.4 °C 1026.0 hPa Calm     75% 0.0 mm 224.40 W/m2
15:25 13.6 °C 9.1 °C 1026.0 hPa Calm     74% 0.0 mm 243.10 W/m2
15:29 13.7 °C 9.5 °C 1026.0 hPa Calm     76% 0.0 mm 239.80 W/m2
15:34 13.8 °C 9.4 °C 1026.0 hPa Calm     75% 0.0 mm 239.80 W/m2
15:40 13.8 °C 9.2 °C 1026.0 hPa Calm     74% 0.0 mm 218.90 W/m2
15:45 13.7 °C 9.2 °C 1026.1 hPa Calm     74% 0.0 mm 214.50 W/m2
15:50 13.6 °C 9.3 °C 1026.1 hPa Calm     75% 0.0 mm 185.90 W/m2
15:54 13.6 °C 9.2 °C 1026.2 hPa Calm     75% 0.0 mm 196.90 W/m2
15:59 13.5 °C 9.3 °C 1026.2 hPa Calm     76% 0.0 mm 171.60 W/m2
16:04 13.3 °C 9.2 °C 1026.2 hPa Calm     76% 0.0 mm 150.70 W/m2
16:10 13.3 °C 9.3 °C 1026.2 hPa Calm     77% 0.0 mm 137.50 W/m2
16:14 13.3 °C 9.3 °C 1026.2 hPa Calm     77% 0.0 mm 129.80 W/m2
16:19 13.2 °C 9.3 °C 1026.1 hPa Calm     77% 0.0 mm 122.10 W/m2
16:25 13.1 °C 9.3 °C 1026.2 hPa Calm   6.4 km/h 78% 0.0 mm 106.70 W/m2
16:30 12.9 °C 9.2 °C 1026.3 hPa Calm   6.4 km/h 78% 0.0 mm 91.30 W/m2
16:35 12.8 °C 9.3 °C 1026.4 hPa Calm   8.0 km/h 79% 0.0 mm 79.20 W/m2
16:40 12.7 °C 9.2 °C 1026.4 hPa Calm     79% 0.0 mm 69.30 W/m2
16:44 12.7 °C 9.2 °C 1026.4 hPa Calm     79% 0.0 mm 63.80 W/m2
16:50 12.6 °C 9.1 °C 1026.4 hPa Calm     79% 0.0 mm 50.60 W/m2
16:54 12.5 °C 9.2 °C 1026.5 hPa SW 1.9 km/h 0.3 km/h 80% 0.0 mm 40.70 W/m2
17:00 12.5 °C 9.2 °C 1026.5 hPa Calm   4.8 km/h 80% 0.0 mm 36.30 W/m2
17:04 12.4 °C 9.1 °C 1026.5 hPa Calm     80% 0.0 mm 30.80 W/m2
Caerphilly,Wales
Compliments of Weather Underground - 4 mb